Record,Date/Time,10,Tamb(K),Rh(%),Pres(mb),Rain,Az(deg),El(deg),TkBB(K), 22.235, 23.035, 23.835, 26.235, 30.000,
     1,10/05/05 01:18:13,11,294.70, 80.12,1011.3,N,  0.00, 90.00,299.57, 78.68, 75.23, 63.96, 41.50, 30.93,
     2,10/05/05 01:19:14,11,294.68, 79.91,1011.2,N,  0.00, 90.00,299.58, 77.86, 75.18, 62.62, 40.53, 30.78,
     3,10/05/05 01:20:14,11,294.67, 81.02,1011.3,N,  0.00, 90.00,299.56, 76.13, 72.70, 60.56, 37.43, 26.87,
     4,10/05/05 01:21:14,11,294.56, 80.28,1011.6,N,  0.00, 90.00,299.57, 77.49, 74.64, 63.15, 40.69, 30.74,
     5,10/05/05 01:22:14,11,294.49, 80.77,1011.4,N,  0.00, 90.00,299.56, 79.26, 76.54, 65.11, 43.00, 33.32,
     6,10/05/05 01:23:14,11,294.50, 81.03,1011.4,N,  0.00, 90.00,299.56, 79.39, 76.95, 65.57, 43.50, 33.18,
     7,10/05/05 01:24:14,11,294.66, 82.33,1011.3,N,  0.00, 90.00,299.56, 79.58, 76.84, 65.00, 43.18, 32.55,
     8,10/05/05 01:26:15,11,294.50, 81.12,1011.5,N,  0.00, 90.00,299.56, 79.42, 76.69, 64.68, 43.33, 33.83,
     9,10/05/05 01:27:14,11,294.44, 81.36,1011.3,N,  0.00, 90.00,299.55, 79.29, 76.39, 65.31, 43.56, 32.64,
    10,10/05/05 01:28:14,11,294.49, 80.36,1011.6,N,  0.00, 90.00,299.57, 78.49, 75.53, 64.13, 42.64, 32.32,
    11,10/05/05 01:29:14,11,294.48, 81.03,1011.3,N,  0.00, 90.00,299.55, 78.32, 75.64, 63.95, 42.63, 31.97,
    12,10/05/05 01:30:14,11,294.37, 80.88,1011.5,N,  0.00, 90.00,299.55, 78.01, 74.49, 63.74, 41.66, 30.93,
    13,10/05/05 01:31:14,11,294.53, 82.52,1011.4,N,  0.00, 90.00,299.55, 78.95, 76.50, 64.77, 43.37, 33.00,
    14,10/05/05 01:32:14,11,294.33, 81.89,1011.4,N,  0.00, 90.00,299.56, 78.80, 75.51, 64.05, 42.17, 32.17,
    15,10/05/05 01:33:14,11,294.48, 83.38,1011.6,N,  0.00, 90.00,299.55, 78.62, 75.55, 63.98, 42.47, 31.83,
    16,10/05/05 01:34:14,11,294.40, 82.07,1011.6,N,  0.00, 90.00,299.53, 78.31, 75.31, 63.62, 42.09, 32.34,
    17,10/05/05 01:35:14,11,294.31, 82.00,1011.5,N,  0.00, 90.00,299.53, 76.66, 74.05, 62.50, 40.92, 29.66,
    18,10/05/05 01:36:14,11,294.28, 81.89,1011.5,N,  0.00, 90.00,299.53, 77.33, 74.25, 62.47, 40.62, 30.11,
    19,10/05/05 01:37:14,11,294.41, 82.98,1011.5,N,  0.00, 90.00,299.52, 78.38, 74.90, 63.67, 42.00, 32.23,
    20,10/05/05 01:38:14,11,294.18, 81.97,1011.4,N,  0.00, 90.00,299.52, 77.32, 74.32, 63.19, 40.67, 30.87,
    21,10/05/05 01:39:14,11,294.28, 82.10,1011.6,N,  0.00, 90.00,299.52, 77.50, 74.08, 63.04, 41.32, 30.72,
    22,10/05/05 01:40:14,11,294.13, 81.25,1011.6,N,  0.00, 90.00,299.51, 75.87, 72.40, 61.01, 38.77, 27.20,
    23,10/05/05 01:41:14,11,294.26, 81.01,1011.6,N,  0.00, 90.00,299.51, 77.15, 74.16, 62.81, 41.62, 30.71,
    24,10/05/05 01:42:14,11,294.30, 81.17,1011.5,N,  0.00, 90.00,299.49, 76.02, 72.61, 61.31, 39.29, 28.03,
    25,10/05/05 01:43:14,11,294.24, 81.10,1011.7,N,  0.00, 90.00,299.50, 77.16, 74.22, 62.92, 41.23, 30.15,
    26,10/05/05 01:44:14,11,294.18, 82.97,1011.5,N,  0.00, 90.00,299.48, 77.65, 74.86, 63.75, 42.37, 31.93,
    27,10/05/05 01:45:14,11,294.15, 82.31,1011.6,N,  0.00, 90.00,299.49, 77.15, 74.38, 62.33, 41.07, 31.19,
    28,10/05/05 01:46:14,11,294.09, 82.67,1011.7,N,  0.00, 90.00,299.47, 76.94, 74.51, 62.30, 40.59, 30.57,
    29,10/05/05 01:47:14,11,294.07, 82.51,1011.5,N,  0.00, 90.00,299.46, 77.05, 74.44, 62.71, 41.57, 30.89,
    30,10/05/05 01:48:14,11,294.15, 82.08,1011.8,N,  0.00, 90.00,299.47, 76.19, 73.67, 61.63, 39.28, 28.53,
    31,10/05/05 01:49:14,11,294.22, 82.43,1011.7,N,  0.00, 90.00,299.44, 75.59, 72.31, 60.78, 38.52, 27.42,
    32,10/05/05 01:50:14,11,294.18, 81.66,1011.7,N,  0.00, 90.00,299.45, 75.45, 72.63, 61.03, 38.87, 28.02,
    33,10/05/05 01:51:14,11,294.21, 82.44,1011.8,N,  0.00, 90.00,299.44, 77.03, 73.68, 62.71, 41.62, 29.99,
    34,10/05/05 01:52:14,11,294.09, 82.59,1011.7,N,  0.00, 90.00,299.44, 76.99, 74.25, 62.39, 41.24, 31.55,
    35,10/05/05 01:53:14,11,294.08, 82.84,1011.8,N,  0.00, 90.00,299.42, 78.01, 75.36, 63.93, 42.72, 33.66,
    36,10/05/05 01:54:14,11,294.22, 83.78,1011.7,N,  0.00, 90.00,299.42, 77.68, 74.88, 63.63, 42.79, 32.96,
    37,10/05/05 01:55:14,11,294.04, 82.24,1011.7,N,  0.00, 90.00,299.41, 78.01, 74.95, 63.71, 42.02, 31.44,
    38,10/05/05 01:56:14,11,294.38, 83.80,1011.6,N,  0.00, 90.00,299.40, 77.70, 74.83, 63.23, 42.27, 32.37,
    39,10/05/05 01:57:14,11,294.36, 83.91,1011.8,N,  0.00, 90.00,299.40, 77.05, 74.66, 62.61, 41.68, 31.30,
    40,10/05/05 01:58:14,11,294.20, 81.96,1011.8,N,  0.00, 90.00,299.40, 77.34, 74.10, 62.51, 41.01, 31.25,
    41,10/05/05 01:59:14,11,294.15, 81.34,1011.7,N,  0.00, 90.00,299.38, 76.29, 73.34, 61.76, 39.70, 28.15,
    42,10/05/05 02:00:14,11,294.16, 80.72,1011.8,N,  0.00, 90.00,299.38, 77.72, 74.72, 63.22, 41.65, 32.30,
    43,10/05/05 02:01:14,11,294.14, 80.28,1011.7,N,  0.00, 90.00,299.38, 76.47, 73.65, 62.61, 40.22, 30.14,
    44,10/05/05 02:02:14,11,294.11, 80.35,1012.0,N,  0.00, 90.00,299.36, 77.10, 74.10, 62.74, 40.86, 29.88,
    45,10/05/05 02:03:14,11,294.22, 81.40,1011.9,N,  0.00, 90.00,299.36, 77.76, 75.01, 63.59, 41.94, 32.64,
    46,10/05/05 02:04:14,11,294.16, 81.38,1011.7,N,  0.00, 90.00,299.36, 77.21, 74.43, 63.35, 41.50, 31.81,
    47,10/05/05 02:05:14,11,294.22, 81.23,1011.9,N,  0.00, 90.00,299.36, 77.46, 74.35, 63.16, 41.97, 31.59,
    48,10/05/05 02:06:14,11,294.09, 81.13,1011.7,N,  0.00, 90.00,299.35, 77.71, 75.15, 63.35, 41.44, 31.93,
    49,10/05/05 02:07:14,11,294.07, 80.96,1012.0,N,  0.00, 90.00,299.33, 77.92, 74.12, 63.48, 41.88, 31.97,
    50,10/05/05 02:08:14,11,294.03, 80.79,1011.9,N,  0.00, 90.00,299.34, 77.41, 74.28, 62.76, 41.52, 31.82,
    51,10/05/05 02:09:14,11,294.16, 80.27,1012.0,N,  0.00, 90.00,299.33, 76.92, 74.40, 62.71, 41.14, 30.98,
    52,10/05/05 02:10:14,11,294.19, 81.12,1012.1,N,  0.00, 90.00,299.33, 77.08, 73.85, 62.59, 40.53, 30.38,
    53,10/05/05 02:11:14,11,294.23, 81.42,1011.9,N,  0.00, 90.00,299.32, 76.92, 74.00, 62.53, 40.15, 29.55,
    54,10/05/05 02:12:14,11,294.17, 80.48,1012.1,N,  0.00, 90.00,299.32, 77.06, 74.26, 62.60, 40.85, 30.30,
    55,10/05/05 02:13:14,11,294.19, 80.33,1012.0,N,  0.00, 90.00,299.31, 76.88, 74.48, 62.63, 40.83, 29.37,
    56,10/05/05 02:14:14,11,294.21, 80.35,1012.0,N,  0.00, 90.00,299.31, 77.68, 75.24, 62.85, 41.33, 31.08,
    57,10/05/05 02:15:14,11,294.24, 80.50,1012.1,N,  0.00, 90.00,299.31, 78.04, 75.05, 63.07, 41.53, 30.82,
    58,10/05/05 02:16:14,11,294.13, 80.15,1012.0,N,  0.00, 90.00,299.30, 77.72, 74.41, 62.85, 41.08, 30.73,
    59,10/05/05 02:17:14,11,294.29, 81.25,1011.9,N,  0.00, 90.00,299.30, 77.49, 74.56, 63.04, 41.54, 30.07,
    60,10/05/05 02:18:14,11,294.08, 79.75,1012.1,N,  0.00, 90.00,299.30, 77.58, 74.51, 63.02, 41.37, 30.95,
    61,10/05/05 02:19:14,11,294.14, 80.68,1012.3,N,  0.00, 90.00,299.31, 78.02, 74.35, 63.03, 41.52, 30.18,
    62,10/05/05 02:20:14,11,294.25, 80.74,1012.1,N,  0.00, 90.00,299.30, 76.66, 73.23, 62.32, 39.46, 28.65,
    63,10/05/05 02:21:14,11,294.14, 80.16,1012.0,N,  0.00, 90.00,299.28, 77.29, 73.70, 62.50, 40.43, 29.96,
    64,10/05/05 02:22:14,11,294.27, 80.77,1012.1,N,  0.00, 90.00,299.30, 77.49, 74.55, 62.67, 40.71, 29.86,
    65,10/05/05 02:23:14,11,294.12, 79.92,1012.2,N,  0.00, 90.00,299.29, 76.50, 73.47, 62.21, 40.19, 29.18,
    66,10/05/05 02:24:14,11,294.13, 80.35,1012.2,N,  0.00, 90.00,299.28, 76.67, 74.23, 62.17, 40.62, 29.19,
    67,10/05/05 02:25:14,11,294.28, 80.85,1012.0,N,  0.00, 90.00,299.29, 76.91, 73.84, 62.29, 40.14, 29.82,
    68,10/05/05 02:26:14,11,294.31, 80.95,1012.1,N,  0.00, 90.00,299.30, 76.62, 73.12, 61.65, 39.62, 28.71,
    69,10/05/05 02:27:14,11,294.22, 80.73,1012.1,N,  0.00, 90.00,299.28, 76.73, 73.87, 62.92, 40.53, 28.92,
    70,10/05/05 02:28:14,11,294.14, 79.24,1012.1,N,  0.00, 90.00,299.28, 76.18, 73.68, 61.60, 39.19, 27.30,
    71,10/05/05 02:29:14,11,294.34, 79.96,1012.0,N,  0.00, 90.00,299.28, 76.35, 73.28, 61.40, 39.01, 27.83,
    72,10/05/05 02:30:14,11,294.29, 79.86,1012.2,N,  0.00, 90.00,299.28, 76.42, 73.15, 61.65, 39.47, 27.75,
    73,10/05/05 02:31:14,11,294.27, 79.92,1012.2,N,  0.00, 90.00,299.30, 76.42, 73.46, 61.54, 39.93, 28.88,
    74,10/05/05 02:32:14,11,294.14, 80.81,1012.3,N,  0.00, 90.00,299.28, 76.32, 74.04, 62.59, 40.72, 30.13,
    75,10/05/05 02:33:14,11,294.14, 80.84,1012.1,N,  0.00, 90.00,299.30, 77.84, 74.56, 63.50, 41.40, 30.92,
    76,10/05/05 02:34:14,11,294.10, 80.70,1012.3,N,  0.00, 90.00,299.28, 77.20, 74.52, 62.86, 41.67, 31.67,
    77,10/05/05 02:35:14,11,294.21, 81.01,1012.3,N,  0.00, 90.00,299.29, 77.16, 74.32, 62.79, 41.11, 29.74,
    78,10/05/05 02:36:14,11,294.22, 81.53,1012.2,N,  0.00, 90.00,299.28, 77.44, 74.97, 62.97, 41.64, 31.17,
    79,10/05/05 02:37:14,11,294.14, 80.69,1012.1,N,  0.00, 90.00,299.28, 77.09, 73.46, 62.02, 39.92, 29.08,
    80,10/05/05 02:38:14,11,294.37, 82.05,1012.1,N,  0.00, 90.00,299.28, 76.33, 73.08, 61.66, 39.34, 28.30,
    81,10/05/05 02:39:14,11,294.11, 80.21,1012.4,N,  0.00, 90.00,299.29, 76.90, 73.16, 61.81, 39.90, 27.90,
    82,10/05/05 02:40:14,11,294.15, 79.60,1012.5,N,  0.00, 90.00,299.28, 75.84, 72.67, 61.16, 39.12, 27.91,
    83,10/05/05 02:41:14,11,294.31, 80.84,1012.4,N,  0.00, 90.00,299.29, 76.03, 73.04, 61.75, 39.74, 29.51,
    84,10/05/05 02:42:14,11,294.17, 81.12,1012.2,N,  0.00, 90.00,299.28, 76.61, 73.28, 62.36, 40.50, 29.58,
    85,10/05/05 02:43:14,11,294.36, 81.95,1012.2,N,  0.00, 90.00,299.28, 76.44, 73.13, 61.67, 40.22, 29.52,
    86,10/05/05 02:44:14,11,294.05, 80.50,1012.4,N,  0.00, 90.00,299.28, 76.29, 73.41, 62.44, 40.10, 30.82,
    87,10/05/05 02:45:14,11,294.24, 81.91,1012.4,N,  0.00, 90.00,299.30, 76.59, 73.87, 62.11, 40.93, 29.76,
    88,10/05/05 02:46:14,11,294.05, 81.89,1012.3,N,  0.00, 90.00,299.28, 76.70, 73.91, 62.18, 40.80, 30.10,
    89,10/05/05 02:47:14,11,294.01, 81.67,1012.3,N,  0.00, 90.00,299.27, 77.07, 73.83, 62.28, 40.85, 30.30,
    90,10/05/05 02:48:14,11,294.10, 82.28,1012.1,N,  0.00, 90.00,299.28, 76.41, 74.46, 62.46, 40.78, 30.58,
    91,10/05/05 02:49:14,11,293.97, 81.80,1012.1,N,  0.00, 90.00,299.27, 76.96, 73.61, 62.62, 40.97, 30.75,
    92,10/05/05 02:50:14,11,294.04, 82.16,1012.3,N,  0.00, 90.00,299.28, 76.79, 74.38, 62.64, 40.99, 31.29,
    93,10/05/05 02:51:14,11,293.92, 81.25,1012.2,N,  0.00, 90.00,299.27, 76.27, 73.42, 61.65, 38.73, 28.89,
    94,10/05/05 02:52:14,11,294.19, 82.62,1012.4,N,  0.00, 90.00,299.28, 76.76, 74.04, 62.33, 40.31, 30.38,
    95,10/05/05 02:53:14,11,293.97, 81.65,1012.3,N,  0.00, 90.00,299.27, 77.11, 74.13, 62.64, 40.93, 29.91,
    96,10/05/05 02:54:14,11,293.89, 81.13,1012.5,N,  0.00, 90.00,299.27, 76.60, 73.88, 61.88, 40.33, 29.66,
    97,10/05/05 02:55:14,11,293.97, 82.46,1012.4,N,  0.00, 90.00,299.26, 76.91, 73.50, 62.18, 40.79, 30.39,
    98,10/05/05 02:56:14,11,293.86, 81.51,1012.4,N,  0.00, 90.00,299.27, 76.97, 73.57, 62.06, 40.86, 30.26,
    99,10/05/05 02:57:14,11,293.86, 81.71,1012.3,N,  0.00, 90.00,299.26, 76.77, 73.23, 62.22, 40.41, 29.57,
   100,10/05/05 02:58:14,11,293.89, 81.52,1012.4,N,  0.00, 90.00,299.27, 76.21, 73.13, 61.59, 40.13, 29.38,
   101,10/05/05 02:59:14,11,293.76, 80.82,1012.5,N,  0.00, 90.00,299.25, 76.52, 73.16, 61.98, 39.93, 29.20,
   102,10/05/05 03:00:14,11,293.92, 81.59,1012.4,N,  0.00, 90.00,299.25, 76.50, 72.59, 61.72, 39.78, 28.48,
   103,10/05/05 03:01:14,11,293.96, 81.20,1012.4,N,  0.00, 90.00,299.25, 76.37, 73.45, 61.98, 40.36, 29.97,
   104,10/05/05 03:02:14,11,293.79, 80.81,1012.3,N,  0.00, 90.00,299.23, 76.02, 73.25, 61.65, 39.89, 29.27,
   105,10/05/05 03:03:14,11,293.94, 81.39,1012.3,N,  0.00, 90.00,299.22, 76.04, 72.91, 61.41, 39.93, 29.84,
   106,10/05/05 03:04:14,11,293.89, 81.24,1012.3,N,  0.00, 90.00,299.22, 76.44, 73.71, 62.22, 40.35, 29.76,
   107,10/05/05 03:05:14,11,293.85, 82.13,1012.1,N,  0.00, 90.00,299.23, 76.47, 73.23, 62.22, 41.11, 30.26,
   108,10/05/05 03:06:14,11,293.86, 82.16,1012.2,N,  0.00, 90.00,299.22, 76.54, 73.32, 62.46, 41.03, 30.67,
   109,10/05/05 03:07:14,11,293.75, 81.38,1012.2,N,  0.00, 90.00,299.20, 76.08, 73.43, 61.37, 39.83, 28.93,
   110,10/05/05 03:08:14,11,293.92, 82.37,1012.3,N,  0.00, 90.00,299.22, 76.95, 73.22, 62.05, 40.72, 30.90,
   111,10/05/05 03:09:14,11,293.91, 82.29,1012.4,N,  0.00, 90.00,299.19, 77.04, 73.57, 62.11, 40.82, 31.21,
   112,10/05/05 03:10:14,11,293.87, 82.04,1012.4,N,  0.00, 90.00,299.19, 76.81, 73.52, 62.42, 40.61, 30.73,
   113,10/05/05 03:11:14,11,293.79, 82.07,1012.6,N,  0.00, 90.00,299.18, 76.67, 73.52, 61.92, 40.51, 30.18,
   114,10/05/05 03:12:14,11,293.88, 82.30,1012.5,N,  0.00, 90.00,299.17, 76.14, 73.21, 61.61, 40.33, 30.48,
   115,10/05/05 03:13:14,11,293.76, 81.97,1012.2,N,  0.00, 90.00,299.17, 76.40, 74.05, 62.49, 41.15, 30.82,
   116,10/05/05 03:14:14,11,293.62, 81.57,1012.5,N,  0.00, 90.00,299.16, 76.74, 73.99, 62.53, 41.12, 31.51,
   117,10/05/05 03:15:14,11,293.75, 81.56,1012.5,N,  0.00, 90.00,299.15, 75.99, 72.80, 61.33, 39.75, 28.99,
   118,10/05/05 03:16:14,11,293.82, 81.74,1012.3,N,  0.00, 90.00,299.13, 76.42, 73.27, 62.07, 40.56, 30.14,
   119,10/05/05 03:17:14,11,293.74, 81.52,1012.6,N,  0.00, 90.00,299.12, 76.69, 73.21, 62.03, 40.73, 30.57,
   120,10/05/05 03:18:14,11,293.66, 81.48,1012.5,N,  0.00, 90.00,299.13, 76.14, 73.13, 62.08, 40.49, 30.35,
   121,10/05/05 03:19:14,11,293.88, 81.91,1012.5,N,  0.00, 90.00,299.12, 77.07, 74.14, 62.84, 41.11, 31.03,
   122,10/05/05 03:20:14,11,293.89, 82.61,1012.4,N,  0.00, 90.00,299.11, 76.86, 73.86, 62.62, 41.19, 31.33,
   123,10/05/05 03:21:14,11,293.84, 81.61,1012.3,N,  0.00, 90.00,299.11, 77.42, 74.43, 62.56, 42.03, 31.29,
   124,10/05/05 03:22:14,11,293.97, 82.54,1012.3,N,  0.00, 90.00,299.10, 77.13, 73.88, 62.72, 41.68, 31.23,
   125,10/05/05 03:23:14,11,293.72, 81.42,1012.5,N,  0.00, 90.00,299.08, 77.43, 74.46, 63.03, 41.98, 31.56,
   126,10/05/05 03:24:14,11,293.65, 82.04,1012.4,N,  0.00, 90.00,299.08, 77.81, 74.64, 63.09, 42.03, 32.19,
   127,10/05/05 03:25:14,11,293.76, 82.10,1012.4,N,  0.00, 90.00,299.06, 77.61, 74.37, 63.04, 41.91, 32.05,
   128,10/05/05 03:26:14,11,293.77, 81.84,1012.5,N,  0.00, 90.00,299.07, 77.18, 74.60, 63.39, 42.54, 32.43,
   129,10/05/05 03:27:14,11,293.82, 82.62,1012.3,N,  0.00, 90.00,299.05, 77.90, 74.63, 63.81, 43.26, 32.48,
   130,10/05/05 03:28:14,11,293.92, 82.84,1012.5,N,  0.00, 90.00,299.06, 77.74, 75.08, 63.69, 42.80, 33.19,
   131,10/05/05 03:29:14,11,294.05, 84.23,1012.6,N,  0.00, 90.00,299.06, 77.32, 74.45, 63.41, 42.12, 32.61,
   132,10/05/05 03:30:14,11,293.80, 82.93,1012.3,N,  0.00, 90.00,299.05, 77.40, 74.69, 62.88, 41.88, 32.13,
   133,10/05/05 03:31:14,11,293.74, 81.98,1012.4,N,  0.00, 90.00,299.04, 78.31, 75.27, 63.60, 42.95, 32.78,
   134,10/05/05 03:32:14,11,293.74, 82.20,1012.3,N,  0.00, 90.00,299.03, 78.38, 75.75, 64.22, 43.62, 34.16,
   135,10/05/05 03:33:14,11,293.68, 83.11,1012.7,N,  0.00, 90.00,299.04, 78.23, 75.21, 64.04, 43.29, 33.98,
   136,10/05/05 03:34:14,11,293.71, 83.34,1012.6,N,  0.00, 90.00,299.02, 77.89, 75.58, 63.81, 42.87, 33.84,
   137,10/05/05 03:35:14,11,293.65, 83.20,1012.6,N,  0.00, 90.00,299.02, 77.74, 75.11, 63.69, 42.36, 33.46,
   138,10/05/05 03:36:14,11,293.57, 82.52,1012.5,N,  0.00, 90.00,299.00, 77.83, 75.07, 63.51, 42.59, 33.40,
   139,10/05/05 03:37:14,11,293.77, 83.41,1012.5,N,  0.00, 90.00,299.01, 77.91, 74.78, 63.91, 43.03, 32.95,
   140,10/05/05 03:38:14,11,293.46, 82.36,1012.8,N,  0.00, 90.00,299.00, 77.70, 74.59, 63.05, 42.43, 32.39,
   141,10/05/05 03:39:14,11,293.60, 83.19,1012.7,N,  0.00, 90.00,298.99, 77.54, 74.68, 63.60, 42.80, 33.60,
   142,10/05/05 03:40:14,11,293.49, 82.80,1012.8,N,  0.00, 90.00,298.99, 77.76, 74.76, 63.81, 43.05, 33.59,
   143,10/05/05 03:41:14,11,293.69, 83.35,1012.7,N,  0.00, 90.00,298.98, 78.01, 75.33, 64.27, 43.21, 32.82,
   144,10/05/05 03:42:14,11,293.80, 84.03,1012.9,N,  0.00, 90.00,298.97, 77.97, 75.37, 63.90, 43.18, 34.57,
   145,10/05/05 03:43:14,11,293.57, 83.00,1012.6,N,  0.00, 90.00,298.96, 78.00, 74.86, 64.04, 43.46, 33.66,
   146,10/05/05 03:44:14,11,293.55, 82.60,1012.7,N,  0.00, 90.00,298.96, 77.67, 75.11, 64.07, 43.18, 33.15,
   147,10/05/05 03:45:14,11,293.69, 83.64,1012.8,N,  0.00, 90.00,298.94, 77.86, 75.58, 64.05, 43.28, 33.29,
   148,10/05/05 03:46:14,11,293.50, 82.56,1012.6,N,  0.00, 90.00,298.94, 77.80, 75.02, 64.13, 43.11, 33.18,
   149,10/05/05 03:47:14,11,293.56, 82.71,1012.7,N,  0.00, 90.00,298.93, 77.90, 75.09, 64.04, 43.09, 33.95,
   150,10/05/05 03:48:14,11,293.48, 83.27,1012.8,N,  0.00, 90.00,298.92, 77.50, 74.52, 62.99, 42.56, 33.02,
   151,10/05/05 03:49:14,11,293.49, 83.00,1012.8,N,  0.00, 90.00,298.92, 77.57, 74.42, 62.86, 42.02, 33.30,
   152,10/05/05 03:50:14,11,293.48, 83.06,1012.7,N,  0.00, 90.00,298.91, 77.35, 74.44, 63.50, 42.55, 32.50,
   153,10/05/05 03:51:14,11,293.60, 83.44,1012.7,N,  0.00, 90.00,298.90, 78.00, 74.65, 62.80, 42.12, 32.47,
   154,10/05/05 03:52:14,11,293.45, 82.31,1012.8,N,  0.00, 90.00,298.91, 78.20, 75.32, 63.56, 42.71, 33.45,
   155,10/05/05 03:53:14,11,293.40, 83.06,1012.6,N,  0.00, 90.00,298.88, 78.21, 75.27, 64.27, 43.62, 34.74,
   156,10/05/05 03:54:14,11,293.38, 82.84,1012.7,N,  0.00, 90.00,298.88, 78.26, 75.08, 64.11, 43.31, 33.49,
   157,10/05/05 03:55:14,11,293.46, 83.90,1012.8,N,  0.00, 90.00,298.87, 79.18, 76.24, 64.70, 44.30, 34.31,
   158,10/05/05 03:56:14,11,293.45, 84.14,1012.5,N,  0.00, 90.00,298.85, 77.61, 75.13, 63.60, 43.13, 33.45,
   159,10/05/05 03:57:14,11,293.38, 83.07,1012.5,N,  0.00, 90.00,298.85, 77.58, 74.33, 62.97, 41.49, 31.66,
   160,10/05/05 03:58:14,11,293.42, 83.90,1012.9,N,  0.00, 90.00,298.85, 77.80, 74.65, 63.42, 42.79, 32.70,
   161,10/05/05 03:59:14,11,293.41, 84.19,1012.8,N,  0.00, 90.00,298.84, 78.08, 74.97, 63.97, 42.24, 32.78,
   162,10/05/05 04:00:14,11,293.32, 83.18,1012.6,N,  0.00, 90.00,298.82, 77.95, 75.69, 64.20, 43.83, 33.19,
   163,10/05/05 04:01:14,11,293.49, 84.15,1012.5,N,  0.00, 90.00,298.80, 78.32, 74.91, 63.79, 42.95, 33.53,
   164,10/05/05 04:02:14,11,293.36, 83.77,1012.6,N,  0.00, 90.00,298.81, 78.06, 74.65, 63.20, 43.05, 32.81,
   165,10/05/05 04:03:14,11,293.32, 82.92,1012.7,N,  0.00, 90.00,298.79, 78.18, 74.93, 63.18, 42.51, 32.11,
   166,10/05/05 04:04:14,11,293.38, 83.39,1012.8,N,  0.00, 90.00,298.78, 77.15, 73.85, 62.53, 40.84, 30.67,
   167,10/05/05 04:05:14,11,293.29, 83.36,1012.7,N,  0.00, 90.00,298.77, 78.06, 75.02, 63.96, 42.80, 33.95,
   168,10/05/05 04:06:14,11,293.25, 84.11,1012.7,N,  0.00, 90.00,298.77, 78.89, 75.96, 64.82, 43.81, 33.50,
   169,10/05/05 04:07:14,11,293.24, 84.02,1012.8,N,  0.00, 90.00,298.75, 78.87, 75.30, 64.33, 42.86, 33.51,
   170,10/05/05 04:08:14,11,293.41, 85.41,1012.9,N,  0.00, 90.00,298.73, 79.24, 76.52, 65.08, 44.26, 34.98,
   171,10/05/05 04:09:14,11,293.24, 84.09,1012.8,N,  0.00, 90.00,298.72, 79.07, 76.12, 65.16, 43.86, 35.44,
   172,10/05/05 04:10:14,11,293.05, 84.42,1012.8,N,  0.00, 90.00,298.72, 79.75, 76.79, 65.64, 44.38, 35.61,
   173,10/05/05 04:11:14,11,293.25, 84.63,1012.6,N,  0.00, 90.00,298.70, 79.67, 76.98, 65.26, 44.50, 35.65,
   174,10/05/05 04:12:14,11,293.30, 84.54,1013.0,N,  0.00, 90.00,298.68, 79.01, 76.16, 64.80, 44.20, 34.11,
   175,10/05/05 04:13:14,11,293.21, 83.87,1012.9,N,  0.00, 90.00,298.68, 79.35, 76.51, 65.11, 44.08, 34.88,
   176,10/05/05 04:14:14,11,293.25, 83.76,1012.8,N,  0.00, 90.00,298.67, 79.12, 76.06, 64.86, 44.34, 34.81,
   177,10/05/05 04:15:14,11,293.20, 83.63,1013.0,N,  0.00, 90.00,298.64, 79.62, 76.45, 65.52, 44.62, 35.24,
   178,10/05/05 04:16:14,11,293.23, 84.25,1013.1,N,  0.00, 90.00,298.65, 79.77, 77.16, 65.94, 44.59, 34.57,
   179,10/05/05 04:17:14,11,293.40, 84.46,1012.8,N,  0.00, 90.00,298.66, 80.55, 77.50, 66.44, 45.72, 36.76,
   180,10/05/05 04:18:14,11,293.33, 84.53,1012.9,N,  0.00, 90.00,298.63, 80.82, 77.50, 66.09, 45.85, 37.06,
   181,10/05/05 04:19:14,11,293.43, 84.32,1013.1,N,  0.00, 90.00,298.63, 80.35, 77.35, 66.43, 44.51, 36.34,
   182,10/05/05 04:20:14,11,293.19, 83.35,1013.0,N,  0.00, 90.00,298.61, 80.87, 77.52, 66.34, 45.26, 36.37,
   183,10/05/05 04:21:14,11,293.17, 83.47,1013.1,N,  0.00, 90.00,298.60, 81.00, 78.08, 67.53, 46.62, 37.86,
   184,10/05/05 04:22:14,11,293.25, 84.10,1013.1,N,  0.00, 90.00,298.60, 82.14, 78.36, 67.00, 46.73, 38.87,
   185,10/05/05 04:23:14,11,293.27, 84.05,1013.0,N,  0.00, 90.00,298.61, 81.01, 77.92, 66.99, 46.69, 37.61,
   186,10/05/05 04:24:14,11,293.52, 84.89,1013.1,N,  0.00, 90.00,298.58, 81.55, 78.35, 67.27, 46.34, 37.83,
   187,10/05/05 04:25:14,11,293.28, 84.12,1012.9,N,  0.00, 90.00,298.58, 80.52, 78.16, 66.48, 45.44, 36.82,
   188,10/05/05 04:26:14,11,293.24, 84.02,1013.2,N,  0.00, 90.00,298.57, 79.75, 77.58, 65.84, 45.13, 36.23,
   189,10/05/05 04:27:14,11,293.38, 84.87,1013.0,N,  0.00, 90.00,298.55, 80.62, 77.53, 66.18, 44.89, 36.30,
   190,10/05/05 04:28:14,11,293.34, 84.21,1013.1,N,  0.00, 90.00,298.54, 81.33, 78.48, 66.87, 46.46, 36.68,
   191,10/05/05 04:29:14,11,293.15, 83.34,1013.4,N,  0.00, 90.00,298.54, 80.52, 77.59, 66.15, 45.50, 36.55,
   192,10/05/05 04:30:14,11,293.20, 83.54,1012.9,N,  0.00, 90.00,298.53, 80.46, 78.01, 66.42, 45.45, 36.77,
   193,10/05/05 04:31:14,11,293.29, 84.51,1013.0,N,  0.00, 90.00,298.52, 80.57, 78.27, 66.46, 46.05, 36.42,
   194,10/05/05 04:32:14,11,293.12, 83.84,1013.3,N,  0.00, 90.00,298.51, 80.79, 78.23, 66.30, 45.02, 37.26,
   195,10/05/05 04:33:14,11,293.15, 84.03,1013.2,N,  0.00, 90.00,298.50, 81.30, 78.25, 67.23, 46.08, 37.45,
   196,10/05/05 04:34:14,11,293.12, 84.26,1013.3,N,  0.00, 90.00,298.49, 81.69, 78.88, 67.81, 47.18, 38.71,
   197,10/05/05 04:35:14,11,293.28, 84.25,1013.0,N,  0.00, 90.00,298.50, 80.88, 77.58, 66.83, 45.36, 37.06,
   198,10/05/05 04:36:14,11,293.19, 84.12,1013.1,N,  0.00, 90.00,298.50, 81.30, 77.83, 67.24, 46.29, 37.47,
   199,10/05/05 04:37:14,11,293.12, 83.80,1012.9,N,  0.00, 90.00,298.47, 80.73, 77.85, 66.71, 45.26, 36.20,
   200,10/05/05 04:38:14,11,293.17, 84.34,1013.1,N,  0.00, 90.00,298.50, 79.66, 77.30, 65.96, 45.03, 35.34,
   201,10/05/05 04:39:14,11,293.17, 83.94,1013.2,N,  0.00, 90.00,298.48, 81.19, 78.22, 67.23, 46.06, 36.93,
   202,10/05/05 04:40:14,11,293.13, 84.17,1013.1,N,  0.00, 90.00,298.47, 81.64, 78.40, 66.40, 46.28, 38.27,
   203,10/05/05 04:41:14,11,293.14, 84.08,1013.1,N,  0.00, 90.00,298.46, 81.36, 79.14, 67.24, 46.46, 38.56,
   204,10/05/05 04:42:14,11,293.19, 84.10,1013.1,N,  0.00, 90.00,298.45, 80.96, 77.63, 66.38, 45.94, 36.23,
   205,10/05/05 04:43:14,11,293.10, 83.82,1012.9,N,  0.00, 90.00,298.44, 80.91, 77.50, 66.53, 45.65, 36.10,
   206,10/05/05 04:44:14,11,293.27, 84.10,1013.0,N,  0.00, 90.00,298.43, 80.74, 77.55, 66.19, 45.67, 35.95,
   207,10/05/05 04:45:14,11,293.03, 83.94,1013.0,N,  0.00, 90.00,298.43, 80.77, 77.67, 67.01, 45.88, 37.05,
   208,10/05/05 04:46:14,11,293.26, 85.02,1013.0,N,  0.00, 90.00,298.42, 81.07, 78.13, 67.07, 45.93, 37.20,
   209,10/05/05 04:47:14,11,293.24, 84.31,1012.9,N,  0.00, 90.00,298.41, 81.54, 78.36, 67.22, 46.64, 38.03,
   210,10/05/05 04:48:14,11,293.12, 84.33,1012.9,N,  0.00, 90.00,298.41, 81.47, 78.71, 67.23, 47.18, 38.22,
   211,10/05/05 04:49:14,11,293.15, 85.31,1012.8,N,  0.00, 90.00,298.41, 81.70, 79.26, 68.10, 48.18, 39.44,
   212,10/05/05 04:50:14,11,293.28, 86.10,1012.9,N,  0.00, 90.00,298.41, 81.57, 79.14, 68.50, 47.81, 39.78,
   213,10/05/05 04:51:14,11,293.13, 85.47,1012.8,N,  0.00, 90.00,298.41, 81.35, 78.80, 67.98, 48.19, 39.15,
   214,10/05/05 04:52:14,11,293.18, 85.68,1012.9,N,  0.00, 90.00,298.38, 82.39, 79.23, 67.97, 48.27, 41.01,
   215,10/05/05 04:53:14,11,293.20, 86.10,1013.1,N,  0.00, 90.00,298.38, 82.60, 80.16, 68.66, 49.56, 41.98,
   216,10/05/05 04:54:14,11,293.00, 85.50,1013.0,N,  0.00, 90.00,298.36, 82.00, 79.28, 68.62, 48.20, 41.28,
   217,10/05/05 04:55:14,11,293.11, 85.51,1013.1,N,  0.00, 90.00,298.36, 81.58, 79.60, 68.37, 48.48, 40.48,
   218,10/05/05 04:56:14,11,293.01, 84.79,1013.1,N,  0.00, 90.00,298.35, 81.72, 79.13, 68.01, 48.07, 39.38,
   219,10/05/05 04:57:14,11,293.04, 84.30,1012.9,N,  0.00, 90.00,298.36, 81.60, 78.39, 67.36, 47.17, 39.32,